Content
SEND FEEDBACK

Daily
Averages
Monthly
Summary
Finland

KEMI, FINLAND


Home > Europe > Finland
Elevation: 49 feet     Latitude: 65 47N     Longitude: 024 35E

WEATHER
 
SELECT A DAY
Number of Records: 216,535;   Date Range: 10/1/98 - 7/28/14
 
SHARE

PRINT THIS DATA

[ ← Previous Day ]
WEATHER ALMANAC - FEBRUARY 5, 2013
[ Next Day → ]
[ °C ]   °F
Weather ElementAverageHighLow
Temperature19.9 °F24.8 °F (12:50 am)12.2 °F (11:20 pm)
Dewpoint18 °F24.8 °F (12:50 am)8.6 °F (11:20 pm)
Humidity92.5 %100 % (12:50 am)85 % (11:20 pm)
Barometer29.39 in29.56 in (11:20 pm)29.27 in (12:50 am)
Wind Speed9.7 mph13.8 mph (12:50 am)
Weather ElementAverage
Visibility6.2 mi
Wind DirectionESE (100.9 °)

Weather ElementTotal
Precipitation---
Heating Degree Days46.5 (Base 65)
Averaged from 47 records on February 5, 2013
WEATHER CONDITIONS BREAKOUT
WIND DIRECTION BREAKOUT
WEATHER BY HOUR - FEBRUARY 5, 2013
[ °C ]   °F
Local TimeTemperatureDewpointHumidityBarometerVisibilityWind DirectionWind SpeedGust SpeedPrecipitationEventsConditions
12:50 AM24.8 °F24.8 °F100 %29.27 in6.2 miSE (140°)13.8 mphSnowLight Snow
1:20 AM24.8 °F24.8 °F100 %29.27 in6.2 miSE (140°)13.8 mphSnowLight Snow
1:50 AM24.8 °F24.8 °F100 %29.27 in6.2 miSE (140°)12.7 mphSnowLight Snow
2:20 AM24.8 °F23.0 °F93 %29.27 in6.2 miSE (140°)12.7 mphSnowLight Snow Showers
2:50 AM24.8 °F23.0 °F93 %29.27 in6.2 miSE (130°)13.8 mphSnowLight Snow Showers
3:20 AM24.8 °F23.0 °F93 %29.27 in6.2 miSE (130°)11.5 mphMostly Cloudy
3:50 AM24.8 °F23.0 °F93 %29.27 in6.2 miESE (120°)11.5 mphMostly Cloudy
4:20 AM24.8 °F23.0 °F93 %29.27 inSE (130°)11.5 mphClear
4:50 AM24.8 °F23.0 °F93 %29.27 in6.2 miSE (140°)10.4 mphMostly Cloudy
5:20 AM23.0 °F21.2 °F93 %29.27 in6.2 miSE (130°)10.4 mphMostly Cloudy
5:50 AM23.0 °F21.2 °F93 %29.30 in6.2 miSE (130°)10.4 mphMostly Cloudy
6:20 AM23.0 °F21.2 °F93 %29.30 in6.2 miESE (120°)10.4 mphMostly Cloudy
6:50 AM23.0 °F21.2 °F93 %29.30 in6.2 miESE (120°)10.4 mphMostly Cloudy
7:20 AM23.0 °F21.2 °F93 %29.30 in6.2 miESE (120°)10.4 mphMostly Cloudy
7:50 AM21.2 °F19.4 °F93 %29.30 in6.2 miESE (120°)10.4 mphMostly Cloudy
8:20 AM21.2 °F19.4 °F93 %29.33 in6.2 miESE (120°)9.2 mphMostly Cloudy
8:50 AM21.2 °F19.4 °F93 %29.33 in6.2 miESE (110°)10.4 mphMostly Cloudy
9:20 AM21.2 °F19.4 °F93 %29.33 in6.2 miESE (110°)10.4 mphMostly Cloudy
9:50 AM21.2 °F19.4 °F93 %29.36 in6.2 miESE (110°)10.4 mphMostly Cloudy
10:20 AM21.2 °F19.4 °F93 %29.36 in6.2 miESE (110°)10.4 mphMostly Cloudy
10:50 AM21.2 °F19.4 °F93 %29.36 in6.2 miESE (110°)10.4 mphScattered Clouds
11:20 AM21.2 °F19.4 °F93 %29.39 in6.2 miESE (110°)10.4 mphMostly Cloudy
11:50 AM21.2 °F19.4 °F93 %29.39 in6.2 miESE (110°)10.4 mphMostly Cloudy
12:20 PM21.2 °F19.4 °F93 %29.39 in6.2 miESE (110°)9.2 mphMostly Cloudy
12:50 PM21.2 °F19.4 °F93 %29.42 in6.2 miEast (100°)8.1 mphScattered Clouds
1:20 PM21.2 °F19.4 °F93 %29.42 in6.2 miEast (90°)9.2 mphPartly Cloudy
1:50 PM21.2 °F19.4 °F93 %29.42 in6.2 miEast (80°)8.1 mphPartly Cloudy
2:20 PM21.2 °F17.6 °F86 %29.42 in6.2 miEast (80°)9.2 mphPartly Cloudy
2:50 PM19.4 °F17.6 °F93 %29.42 inEast (80°)6.9 mphClear
3:20 PM19.4 °F17.6 °F93 %29.42 inENE (70°)6.9 mphClear
3:50 PM19.4 °F15.8 °F86 %29.42 inENE (70°)8.1 mphClear
4:20 PM17.6 °F15.8 °F93 %29.44 inEast (80°)8.1 mphClear
4:50 PM17.6 °F15.8 °F93 %29.44 inEast (80°)9.2 mphClear
5:20 PM15.8 °F14.0 °F93 %29.44 inEast (80°)9.2 mphClear
5:50 PM15.8 °F14.0 °F93 %29.44 inEast (80°)8.1 mphClear
6:20 PM15.8 °F14.0 °F93 %29.47 inEast (80°)6.9 mphClear
6:50 PM15.8 °F14.0 °F93 %29.47 inENE (70°)6.9 mphClear
7:20 PM15.8 °F14.0 °F93 %29.47 inEast (80°)8.1 mphClear
7:50 PM15.8 °F14.0 °F93 %29.50 inEast (80°)8.1 mphClear
8:20 PM15.8 °F14.0 °F93 %29.50 inENE (70°)8.1 mphClear
8:50 PM15.8 °F14.0 °F93 %29.50 inENE (70°)6.9 mphClear
9:20 PM15.8 °F12.2 °F86 %29.50 inENE (70°)6.9 mphClear
9:50 PM14.0 °F12.2 °F93 %29.53 inENE (70°)8.1 mphClear
10:20 PM14.0 °F12.2 °F93 %29.53 inENE (70°)8.1 mphClear
10:50 PM14.0 °F10.4 °F86 %29.53 inEast (80°)9.2 mphClear
11:20 PM12.2 °F8.6 °F85 %29.56 inEast (80°)10.4 mphClear
11:50 PM12.2 °F8.6 °F85 %29.56 inEast (80°)11.5 mphClear
Hourly data recorded from EFKE, located miles away from Kemi, Finland







STORIES FROM OUR PARTNERS